• en Belgique
  • Liste des pays
  • À 7 jours
  • Température de l'eau
  • Carte satellitaire
  • Carte météo
  • Widgets météo
  • user-avatar
    Se connecter

    Météo par heure à Newcastle

    Ce jour, 24 Juillet, Lundi

    Heure Température Précipitation Vent Pression Humidité
    00:00 +11°C° 0 mm 6 m/s 762 mmHg 46%
    01:00 +11°C° 0 mm 6 m/s 762 mmHg 47%
    02:00 +10°C° 0 mm 6 m/s 762 mmHg 48%
    03:00 +10°C° 0 mm 5 m/s 763 mmHg 48%
    04:00 +10°C° 0 mm 5 m/s 763 mmHg 49%
    05:00 +9°C° 0 mm 5 m/s 763 mmHg 51%
    06:00 +9°C° 0 mm 5 m/s 763 mmHg 53%
    07:00 +8°C° 0 mm 5 m/s 764 mmHg 55%
    08:00 +10°C° 0 mm 5 m/s 764 mmHg 53%
    09:00 +13°C° 0 mm 5 m/s 764 mmHg 51%
    10:00 +16°C° 0 mm 5 m/s 764 mmHg 46%
    11:00 +19°C° 0 mm 5 m/s 764 mmHg 44%
    12:00 +20°C° 0 mm 5 m/s 764 mmHg 41%
    13:00 +21°C° 0 mm 4 m/s 763 mmHg 38%
    14:00 +21°C° 0 mm 4 m/s 763 mmHg 41%
    15:00 +20°C° 0 mm 3 m/s 763 mmHg 44%
    16:00 +20°C° 0 mm 2 m/s 763 mmHg 46%
    17:00 +18°C° 0 mm 2 m/s 764 mmHg 52%
    18:00 +15°C° 0 mm 2 m/s 764 mmHg 57%
    19:00 +13°C° 0 mm 2 m/s 765 mmHg 63%
    20:00 +13°C° 0 mm 2 m/s 765 mmHg 64%
    21:00 +11°C° 0 mm 3 m/s 765 mmHg 65%
    22:00 +10°C° 0 mm 3 m/s 765 mmHg 60%
    23:00 +10°C° 0 mm 3 m/s 765 mmHg 63%

    Demain, 25 Juillet, Mardi

    Heure Température Précipitation Vent Pression Humidité
    00:00 +9°C° 0 mm 3 m/s 765 mmHg 66%
    01:00 +9°C° 0 mm 3 m/s 765 mmHg 69%
    02:00 +8°C° 0 mm 3 m/s 765 mmHg 71%
    03:00 +8°C° 0 mm 3 m/s 765 mmHg 73%
    04:00 +8°C° 0 mm 3 m/s 765 mmHg 76%
    05:00 +7°C° 0 mm 3 m/s 766 mmHg 77%
    06:00 +7°C° 0 mm 3 m/s 766 mmHg 78%
    07:00 +7°C° 0 mm 3 m/s 766 mmHg 79%
    08:00 +8°C° 0 mm 4 m/s 766 mmHg 70%
    09:00 +12°C° 0 mm 4 m/s 766 mmHg 62%
    10:00 +14°C° 0 mm 4 m/s 767 mmHg 53%
    11:00 +17°C° 0 mm 3 m/s 766 mmHg 49%
    12:00 +18°C° 0 mm 3 m/s 765 mmHg 44%
    13:00 +20°C° 0 mm 3 m/s 765 mmHg 40%
    14:00 +20°C° 0 mm 2 m/s 764 mmHg 43%
    15:00 +20°C° 0 mm 2 m/s 764 mmHg 46%
    16:00 +20°C° 0 mm 1 m/s 764 mmHg 48%
    17:00 +17°C° 0 mm 2 m/s 764 mmHg 54%
    18:00 +15°C° 0 mm 2 m/s 764 mmHg 59%
    19:00 +12°C° 0 mm 3 m/s 764 mmHg 64%
    20:00 +12°C° 0 mm 3 m/s 764 mmHg 63%
    21:00 +12°C° 0 mm 4 m/s 764 mmHg 63%
    22:00 +12°C° 0 mm 4 m/s 764 mmHg 62%
    23:00 +12°C° 0 mm 5 m/s 764 mmHg 61%

    Après-demain, 26 Juillet, Mercredi

    Heure Température Précipitation Vent Pression Humidité
    00:00 +12°C° 0 mm 5 m/s 764 mmHg 61%
    01:00 +11°C° 0 mm 6 m/s 763 mmHg 60%
    02:00 +11°C° 0 mm 6 m/s 763 mmHg 59%
    03:00 +11°C° 0 mm 6 m/s 763 mmHg 58%
    04:00 +11°C° 0 mm 6 m/s 762 mmHg 58%
    05:00 +11°C° 0 mm 6 m/s 762 mmHg 57%
    06:00 +11°C° 0 mm 6 m/s 763 mmHg 56%
    07:00 +11°C° 0 mm 7 m/s 763 mmHg 56%
    08:00 +14°C° 0 mm 7 m/s 763 mmHg 52%
    09:00 +16°C° 0 mm 7 m/s 763 mmHg 48%
    10:00 +18°C° 0 mm 7 m/s 763 mmHg 45%
    11:00 +20°C° 0 mm 7 m/s 762 mmHg 41%
    12:00 +21°C° 0 mm 7 m/s 762 mmHg 38%
    13:00 +22°C° 0 mm 7 m/s 761 mmHg 34%
    14:00 +22°C° 0 mm 6 m/s 761 mmHg 36%
    15:00 +21°C° 0 mm 6 m/s 761 mmHg 37%
    16:00 +20°C° 0 mm 5 m/s 761 mmHg 39%
    17:00 +19°C° 0 mm 5 m/s 762 mmHg 43%
    18:00 +16°C° 0 mm 6 m/s 763 mmHg 47%
    19:00 +14°C° 0 mm 6 m/s 763 mmHg 50%
    20:00 +13°C° 0 mm 6 m/s 764 mmHg 53%
    21:00 +11°C° 0 mm 6 m/s 765 mmHg 56%
    22:00 +11°C° 0 mm 6 m/s 766 mmHg 58%
    23:00 +10°C° 0 mm 6 m/s 766 mmHg 63%

    27 Juillet, Jeudi

    Heure Température Précipitation Vent Pression Humidité
    00:00 +9°C° 0 mm 5 m/s 766 mmHg 67%
    01:00 +8°C° 0 mm 5 m/s 766 mmHg 72%
    02:00 +8°C° 0 mm 5 m/s 766 mmHg 74%
    03:00 +7°C° 0 mm 5 m/s 766 mmHg 77%
    04:00 +7°C° 0 mm 5 m/s 766 mmHg 80%
    05:00 +6°C° 0 mm 4 m/s 767 mmHg 82%
    06:00 +6°C° 0 mm 4 m/s 767 mmHg 83%
    07:00 +5°C° 0 mm 4 m/s 768 mmHg 85%
    08:00 +8°C° 0 mm 4 m/s 768 mmHg 75%
    09:00 +11°C° 0 mm 3 m/s 768 mmHg 65%
    10:00 +14°C° 0 mm 3 m/s 768 mmHg 55%
    11:00 +16°C° 0 mm 3 m/s 768 mmHg 50%
    12:00 +18°C° 0 mm 2 m/s 767 mmHg 45%
    13:00 +19°C° 0 mm 2 m/s 767 mmHg 40%
    14:00 +18°C° 0 mm 2 m/s 766 mmHg 43%
    15:00 +19°C° 0 mm 1 m/s 766 mmHg 45%
    16:00 +18°C° 0 mm 1 m/s 766 mmHg 48%
    17:00 +15°C° 0 mm 1 m/s 766 mmHg 56%
    18:00 +13°C° 0 mm 2 m/s 767 mmHg 64%
    19:00 +10°C° 0 mm 2 m/s 767 mmHg 72%
    20:00 +9°C° 0 mm 2 m/s 767 mmHg 75%
    21:00 +9°C° 0 mm 2 m/s 767 mmHg 78%
    22:00 +8°C° 0 mm 3 m/s 768 mmHg 81%
    23:00 +8°C° 0 mm 3 m/s 767 mmHg 80%

    28 Juillet, Vendredi

    Heure Température Précipitation Vent Pression Humidité
    00:00 +7°C° 0 mm 4 m/s 767 mmHg 78%
    01:00 +7°C° 0 mm 4 m/s 766 mmHg 77%
    02:00 +8°C° 0 mm 4 m/s 766 mmHg 73%
    03:00 +8°C° 0 mm 4 m/s 766 mmHg 69%
    04:00 +8°C° 0 mm 4 m/s 765 mmHg 65%
    05:00 +8°C° 0 mm 4 m/s 765 mmHg 62%
    06:00 +8°C° 0 mm 4 m/s 765 mmHg 60%
    07:00 +8°C° 0 mm 5 m/s 765 mmHg 57%
    08:00 +12°C° 0 mm 5 m/s 765 mmHg 52%
    09:00 +14°C° 0 mm 5 m/s 765 mmHg 46%
    10:00 +17°C° 0 mm 5 m/s 765 mmHg 41%
    11:00 +19°C° 0 mm 6 m/s 764 mmHg 38%
    12:00 +21°C° 0 mm 6 m/s 764 mmHg 36%
    13:00 +22°C° 0 mm 6 m/s 763 mmHg 34%
    14:00 +22°C° 0 mm 6 m/s 763 mmHg 37%
    15:00 +22°C° 0 mm 5 m/s 762 mmHg 40%
    16:00 +21°C° 0 mm 4 m/s 762 mmHg 43%
    17:00 +19°C° 0 mm 4 m/s 763 mmHg 47%
    18:00 +18°C° 0 mm 4 m/s 763 mmHg 52%
    19:00 +15°C° 0 mm 4 m/s 764 mmHg 56%
    20:00 +14°C° 0 mm 4 m/s 764 mmHg 59%
    21:00 +13°C° 0 mm 4 m/s 765 mmHg 61%
    22:00 +13°C° 0 mm 4 m/s 765 mmHg 64%
    23:00 +12°C° 0 mm 3 m/s 765 mmHg 66%

    29 Juillet, Samedi

    Heure Température Précipitation Vent Pression Humidité
    00:00 +11°C° 0 mm 3 m/s 765 mmHg 69%
    01:00 +11°C° 0 mm 3 m/s 765 mmHg 71%
    02:00 +11°C° 0 mm 3 m/s 764 mmHg 73%
    03:00 +10°C° 0 mm 3 m/s 764 mmHg 74%
    04:00 +10°C° 0 mm 3 m/s 764 mmHg 76%
    05:00 +10°C° 0 mm 3 m/s 765 mmHg 75%
    06:00 +10°C° 0 mm 3 m/s 765 mmHg 75%
    07:00 +10°C° 0 mm 3 m/s 765 mmHg 75%
    08:00 +13°C° 0 mm 3 m/s 765 mmHg 66%
    09:00 +17°C° 0 mm 4 m/s 765 mmHg 57%
    10:00 +19°C° 0 mm 4 m/s 765 mmHg 48%
    11:00 +21°C° 0 mm 4 m/s 764 mmHg 43%
    12:00 +23°C° 0 mm 4 m/s 763 mmHg 38%
    13:00 +26°C° 0 mm 4 m/s 762 mmHg 33%
    14:00 +25°C° 0 mm 4 m/s 762 mmHg 36%
    15:00 +25°C° 0 mm 4 m/s 762 mmHg 38%
    16:00 +25°C° 0 mm 4 m/s 762 mmHg 41%
    17:00 +22°C° 0 mm 4 m/s 762 mmHg 45%
    18:00 +20°C° 0 mm 4 m/s 762 mmHg 50%
    19:00 +18°C° 0 mm 4 m/s 762 mmHg 54%
    20:00 +17°C° 0 mm 4 m/s 762 mmHg 53%
    21:00 +16°C° 0 mm 5 m/s 763 mmHg 51%
    22:00 +16°C° 0 mm 5 m/s 763 mmHg 49%
    23:00 +17°C° 0 mm 4 m/s 762 mmHg 49%
    Voir plus